Regional Weather Roundup
Issued by NWS

Home | Current Version | Previous Version | Graphics & Text | Print | Product List | Glossary Off
Versions: 1 2 3 4 5 6 7 8 9 10 11 12 13 14 15 16 17 18 19 20 21 22 23 24 25 26 27 28 29 30 31 32 33 34 35 36 37 38 39 40 41 42 43 44 45 46 47 48 49 50

000
ASUS43 KTOP 230108
RWRKS

WEATHER ROUNDUP FOR KANSAS
NATIONAL WEATHER SERVICE GOODLAND KS
800 PM CDT FRI AUG 22 2014

NOTE:  "FAIR" INDICATES FEW OR NO CLOUDS BELOW 12,000 FEET WITH NO
SIGNIFICANT WEATHER AND/OR OBSTRUCTIONS TO VISIBILITY.

KSZ001>006-013>018-027>032-041>047-230200-
NORTHWEST KANSAS

CITY           SKY/WX    TMP DP  RH WIND       PRES   REMARKS
GOODLAND       LGT RAIN  64  63  96 N10       29.97S
HAYS           CLOUDY    75  66  73 N10       29.89R
HILL CITY      TSTM      71  66  84 W8G20     29.93R
RUSSELL        CLOUDY    91  64  40 S14G22    29.85R
$$

KSZ061>065-074>080-084>089-230200-
SOUTHWEST KANSAS

CITY           SKY/WX    TMP DP  RH WIND       PRES   REMARKS
DODGE CITY     PTCLDY    81  67  62 E8        29.85R
ELKHART          N/A     89  54  30 S13         N/A
GARDEN CITY    MOCLDY    84  61  45 SE21G26   29.84R
GREAT BEND     CLOUDY    86  63  45 SW10      29.85S
LIBERAL        MOCLDY    88  55  33 S13       29.87F
PRATT          CLEAR     91  55  29 S13       29.85F
$$

KSZ066>073-081>083-090>101-230200-
SOUTHEAST KANSAS

CITY           SKY/WX    TMP DP  RH WIND       PRES   REMARKS
CHANUTE        CLEAR     84  68  58 E5        29.91R
COFFEYVILLE    CLEAR     91  73  55 S13       29.88F HX  99
HUTCHINSON     CLOUDY    77  71  82 E9        29.84F
MEDICINE LODGE   N/A     96  59  29 S10G23    29.82F HX  95
NEWTON         MOCLDY    88  63  42 S3        29.91F
PARSONS        CLEAR     86  70  58 CALM      29.91S
WICHITA INTL   PTCLDY    92  67  43 SE15      29.85F HX  95
WICHITA JABRA  PTCLDY    92  66  42 S14       29.87S
WICHITA MCCONL CLEAR     92  66  42 SE13      29.87S
WINFIELD       CLEAR     90  69  50 SE9       29.88S
$$

KSZ007>012-019>026-033>040-048>060-102>105-230200-
NORTHEAST KANSAS

CITY           SKY/WX    TMP DP  RH WIND       PRES   REMARKS
CONCORDIA      PTCLDY    83  71  67 E8        29.85F
EMPORIA        CLOUDY    76  65  68 S7        29.88R
LAWRENCE       CLOUDY    86  73  65 SE8       29.88S
MANHATTAN      CLOUDY    84  67  56 CALM      29.85F
MARYSVILLE     CLOUDY    82  75  78 E6        29.89R
OLATHE IND     CLOUDY    79  67  66 SE7       29.89F
OLATHE EXE     CLOUDY    79  66  64 CALM      29.88F
SALINA         MOCLDY    89  67  47 SE14      29.82F
TOPEKA BILLARD CLOUDY    86  70  58 SE5       29.88R
TOPEKA FORBES  CLOUDY    83  69  62 CALM      29.88S
$$


USA.gov is the U.S. government's official web portal to all federal, state and local government web resources and services.